Location: Arborea
(39.7744°N, 8.5819°E)
Time: 12:02:14
(UTC+00:00)

Cosmos 1844 Rocket - Pass Details

Date: 24 October 2021
Orbit: 826 x 843 km, 71.0° (Epoch: 07 December)

Event Time Altitude Azimuth Distance (km) Brightness Sun altitude
Rises 17:23:03 0° 347° (NNW) 3,372 5.9 -10.2°
Reaches altitude 10° 17:25:55 10° 0° (N) 2,435 5.0 -10.7°
Maximum altitude 17:30:29 25° 56° (NE) 1,597 3.7 -11.6°
Enters shadow 17:33:52 15° 102° (ESE) 2,092 4.2 -12.2°
